• In Hungary
  • List of Countries
  • For 7 days
  • Water Temperature
  • Satellite Maps
  • Weather Map
  • News
  • Weather Widgets
  • user-avatar
    Login

    Hourly Weather Scherbaki

    Today, 24 May, Thursday

    Time Temperature Precipitation Wind Pressure Humidity
    00:00 +15°C° 0 mm 2 mps 718 mmHg 78%
    01:00 +15°C° 0 mm 1 mps 718 mmHg 79%
    02:00 +15°C° 0 mm 1 mps 718 mmHg 80%
    03:00 +14°C° 0 mm 1 mps 718 mmHg 81%
    04:00 +14°C° 0 mm 1 mps 718 mmHg 80%
    05:00 +15°C° 0 mm 1 mps 718 mmHg 76%
    06:00 +17°C° 0 mm 2 mps 718 mmHg 71%
    07:00 +18°C° 0 mm 2 mps 718 mmHg 67%
    08:00 +20°C° 0 mm 3 mps 718 mmHg 61%
    09:00 +21°C° 0 mm 3 mps 718 mmHg 55%
    10:00 +25°C° 0 mm 4 mps 718 mmHg 47%
    11:00 +25°C° 0 mm 4 mps 718 mmHg 45%
    12:00 +26°C° 0 mm 4 mps 717 mmHg 44%
    13:00 +26°C° 0 mm 4 mps 717 mmHg 42%
    14:00 +26°C° 0 mm 4 mps 717 mmHg 43%
    15:00 +26°C° 0 mm 4 mps 716 mmHg 44%
    16:00 +26°C° 0 mm 4 mps 716 mmHg 44%
    17:00 +25°C° 0 mm 4 mps 716 mmHg 51%
    18:00 +24°C° 0 mm 3 mps 715 mmHg 57%
    19:00 +21°C° 0 mm 3 mps 715 mmHg 63%
    20:00 +20°C° 0.1 mm 2 mps 715 mmHg 68%
    21:00 +18°C° 0.1 mm 2 mps 714 mmHg 73%
    22:00 +16°C° 0.1 mm 1 mps 714 mmHg 78%
    23:00 +16°C° 0 mm 1 mps 713 mmHg 77%

    Tomorrow, 25 May, Friday

    Time Temperature Precipitation Wind Pressure Humidity
    00:00 +15°C° 0 mm 1 mps 713 mmHg 77%
    01:00 +15°C° 0 mm 1 mps 713 mmHg 77%
    02:00 +14°C° 0 mm 1 mps 712 mmHg 80%
    03:00 +13°C° 0 mm 0 mps 712 mmHg 83%
    04:00 +12°C° 0 mm 0 mps 712 mmHg 86%
    05:00 +14°C° 0 mm 1 mps 711 mmHg 82%
    06:00 +16°C° 0 mm 1 mps 711 mmHg 78%
    07:00 +18°C° 0 mm 1 mps 711 mmHg 73%
    08:00 +19°C° 0 mm 2 mps 711 mmHg 67%
    09:00 +20°C° 0 mm 3 mps 711 mmHg 60%
    10:00 +22°C° 0 mm 4 mps 710 mmHg 53%
    11:00 +21°C° 0.1 mm 5 mps 710 mmHg 56%
    12:00 +21°C° 0.1 mm 6 mps 710 mmHg 60%
    13:00 +20°C° 0.1 mm 8 mps 709 mmHg 63%
    14:00 +19°C° 0.4 mm 6 mps 709 mmHg 69%
    15:00 +17°C° 0.4 mm 4 mps 709 mmHg 75%
    16:00 +16°C° 0.4 mm 3 mps 709 mmHg 81%
    17:00 +14°C° 0.3 mm 3 mps 709 mmHg 83%
    18:00 +13°C° 0.3 mm 3 mps 709 mmHg 86%
    19:00 +12°C° 0.3 mm 3 mps 708 mmHg 89%
    20:00 +11°C° 0.1 mm 3 mps 708 mmHg 89%
    21:00 +10°C° 0.1 mm 4 mps 709 mmHg 89%
    22:00 +8°C° 0.1 mm 4 mps 709 mmHg 89%
    23:00 +7°C° 1 mm 4 mps 708 mmHg 90%

    Day after tomorrow, 26 May, Saturday

    Time Temperature Precipitation Wind Pressure Humidity
    00:00 +7°C° 1 mm 4 mps 708 mmHg 91%
    01:00 +6°C° 1 mm 5 mps 708 mmHg 92%
    02:00 +6°C° 0.9 mm 5 mps 708 mmHg 92%
    03:00 +5°C° 0.9 mm 5 mps 709 mmHg 91%
    04:00 +5°C° 0.9 mm 5 mps 709 mmHg 90%
    05:00 +5°C° 0.1 mm 5 mps 709 mmHg 87%
    06:00 +3°C° 0.1 mm 6 mps 710 mmHg 84%
    07:00 +3°C° 0.1 mm 7 mps 710 mmHg 81%
    08:00 +4°C° 0 mm 7 mps 711 mmHg 72%
    09:00 +5°C° 0 mm 7 mps 712 mmHg 64%
    10:00 +6°C° 0 mm 7 mps 712 mmHg 55%
    11:00 +8°C° 0 mm 7 mps 713 mmHg 50%
    12:00 +9°C° 0 mm 6 mps 714 mmHg 46%
    13:00 +10°C° 0 mm 6 mps 714 mmHg 41%
    14:00 +10°C° 0 mm 6 mps 714 mmHg 41%
    15:00 +10°C° 0 mm 6 mps 715 mmHg 41%
    16:00 +10°C° 0 mm 5 mps 715 mmHg 41%
    17:00 +9°C° 0 mm 5 mps 715 mmHg 45%
    18:00 +8°C° 0 mm 4 mps 716 mmHg 49%
    19:00 +8°C° 0 mm 4 mps 716 mmHg 52%
    20:00 +7°C° 0 mm 3 mps 717 mmHg 55%
    21:00 +5°C° 0 mm 3 mps 717 mmHg 58%
    22:00 +3°C° 0 mm 3 mps 718 mmHg 61%
    23:00 +3°C° 0 mm 2 mps 718 mmHg 63%

    27 May, Sunday

    Time Temperature Precipitation Wind Pressure Humidity
    00:00 +2°C° 0 mm 2 mps 718 mmHg 65%
    01:00 +2°C° 0 mm 2 mps 719 mmHg 67%
    02:00 +1°C° 0 mm 2 mps 719 mmHg 68%
    03:00 +1°C° 0 mm 2 mps 719 mmHg 68%
    04:00 -1°C° 0 mm 2 mps 719 mmHg 69%
    05:00 +3°C° 0 mm 2 mps 719 mmHg 64%
    06:00 +5°C° 0 mm 2 mps 720 mmHg 58%
    07:00 +7°C° 0 mm 2 mps 720 mmHg 53%
    08:00 +8°C° 0 mm 3 mps 720 mmHg 50%
    09:00 +10°C° 0 mm 4 mps 720 mmHg 48%
    10:00 +11°C° 0 mm 4 mps 720 mmHg 46%
    11:00 +12°C° 0 mm 5 mps 720 mmHg 47%
    12:00 +13°C° 0 mm 5 mps 719 mmHg 48%
    13:00 +13°C° 0 mm 6 mps 719 mmHg 50%
    14:00 +13°C° 0 mm 6 mps 719 mmHg 53%
    15:00 +13°C° 0 mm 5 mps 718 mmHg 56%
    16:00 +13°C° 0 mm 5 mps 717 mmHg 60%
    17:00 +13°C° 0 mm 5 mps 717 mmHg 64%
    18:00 +13°C° 0 mm 5 mps 717 mmHg 68%
    19:00 +13°C° 0 mm 5 mps 716 mmHg 72%
    20:00 +12°C° 0 mm 5 mps 716 mmHg 75%
    21:00 +12°C° 0 mm 5 mps 715 mmHg 78%
    22:00 +10°C° 0 mm 5 mps 715 mmHg 81%
    23:00 +9°C° 0.1 mm 5 mps 714 mmHg 82%

    28 May, Monday

    Time Temperature Precipitation Wind Pressure Humidity
    00:00 +9°C° 0.1 mm 5 mps 714 mmHg 83%
    01:00 +9°C° 0.1 mm 5 mps 713 mmHg 84%
    02:00 +8°C° 0.7 mm 6 mps 713 mmHg 86%
    03:00 +8°C° 0.7 mm 6 mps 712 mmHg 88%
    04:00 +8°C° 0.7 mm 6 mps 712 mmHg 91%
    05:00 +8°C° 0.6 mm 6 mps 712 mmHg 90%
    06:00 +8°C° 0.6 mm 6 mps 711 mmHg 90%
    07:00 +8°C° 0.6 mm 7 mps 711 mmHg 89%
    08:00 +8°C° 1.5 mm 6 mps 711 mmHg 90%
    09:00 +8°C° 1.5 mm 6 mps 711 mmHg 91%
    10:00 +7°C° 1.5 mm 5 mps 711 mmHg 92%
    11:00 +8°C° 0.6 mm 5 mps 711 mmHg 82%
    12:00 +9°C° 0.6 mm 5 mps 711 mmHg 73%
    13:00 +10°C° 0.6 mm 5 mps 711 mmHg 63%
    14:00 +10°C° 0 mm 6 mps 711 mmHg 59%
    15:00 +10°C° 0 mm 6 mps 711 mmHg 54%
    16:00 +10°C° 0 mm 6 mps 711 mmHg 50%
    17:00 +9°C° 0 mm 6 mps 711 mmHg 54%
    18:00 +8°C° 0 mm 5 mps 711 mmHg 58%
    19:00 +7°C° 0 mm 4 mps 711 mmHg 62%
    20:00 +5°C° 0 mm 4 mps 712 mmHg 68%
    21:00 +3°C° 0 mm 3 mps 712 mmHg 73%
    22:00 +3°C° 0 mm 2 mps 712 mmHg 79%
    23:00 +2°C° 0 mm 2 mps 712 mmHg 81%

    29 May, Tuesday

    Time Temperature Precipitation Wind Pressure Humidity
    00:00 +1°C° 0 mm 2 mps 712 mmHg 84%
    01:00 +1°C° 0 mm 2 mps 712 mmHg 86%
    02:00 -1°C° 0 mm 2 mps 712 mmHg 87%
    03:00 -1°C° 0 mm 2 mps 712 mmHg 89%
    04:00 -2°C° 0 mm 2 mps 712 mmHg 90%
    05:00 0°C° 0 mm 3 mps 712 mmHg 81%
    06:00 0°C° 0 mm 4 mps 712 mmHg 72%
    07:00 +2°C° 0 mm 5 mps 713 mmHg 63%
    08:00 +3°C° 0 mm 5 mps 713 mmHg 58%
    09:00 +4°C° 0 mm 6 mps 713 mmHg 53%
    10:00 +5°C° 0 mm 6 mps 713 mmHg 48%
    11:00 +7°C° 0.1 mm 6 mps 713 mmHg 47%
    12:00 +7°C° 0.1 mm 6 mps 713 mmHg 47%
    13:00 +7°C° 0.1 mm 6 mps 713 mmHg 47%
    14:00 +7°C° 0.1 mm 6 mps 713 mmHg 48%
    15:00 +7°C° 0.1 mm 6 mps 713 mmHg 49%
    16:00 +7°C° 0.1 mm 6 mps 712 mmHg 49%
    17:00 +7°C° 0 mm 5 mps 712 mmHg 53%
    18:00 +7°C° 0 mm 4 mps 712 mmHg 57%
    19:00 +7°C° 0 mm 3 mps 712 mmHg 61%
    20:00 +4°C° 0 mm 3 mps 712 mmHg 70%
    21:00 +4°C° 0 mm 2 mps 712 mmHg 79%
    22:00 +2°C° 0 mm 2 mps 712 mmHg 89%
    23:00 +2°C° 0 mm 2 mps 712 mmHg 91%
    Show more